TimeCDT,TemperatureF,Dew PointF,Humidity,Sea Level PressureIn,VisibilityMPH,Wind Direction,Wind SpeedMPH,Gust SpeedMPH,PrecipitationIn,Events,Conditions,WindDirDegrees,DateUTC
12:53 AM,57.9,54.0,87,29.73,10.0,NNE,8.1,-,N/A,,Scattered Clouds,30,2013-09-28 05:53:00
1:53 AM,59.0,55.0,87,29.71,10.0,East,4.6,-,N/A,,Mostly Cloudy,80,2013-09-28 06:53:00
2:53 AM,60.1,55.9,86,29.68,10.0,East,8.1,-,N/A,,Overcast,90,2013-09-28 07:53:00
3:53 AM,63.0,57.9,84,29.63,10.0,SE,6.9,-,N/A,,Mostly Cloudy,140,2013-09-28 08:53:00
4:25 AM,60.8,55.4,82,29.68,10.0,West,16.1,21.9,N/A,,Overcast,270,2013-09-28 09:25:00
4:31 AM,57.2,53.6,88,29.67,9.0,West,13.8,-,N/A,,Overcast,280,2013-09-28 09:31:00
4:39 AM,55.4,53.6,94,29.66,7.0,WNW,15.0,20.7,N/A,,Overcast,290,2013-09-28 09:39:00
4:48 AM,53.6,51.8,94,29.67,1.8,WNW,11.5,20.7,N/A,,Overcast,300,2013-09-28 09:48:00
4:53 AM,53.1,52.0,96,29.65,1.2,NW,10.4,-,N/A,,Overcast,310,2013-09-28 09:53:00
5:12 AM,53.6,51.8,94,29.64,2.0,NNW,5.8,-,N/A,,Overcast,330,2013-09-28 10:12:00
5:36 AM,53.6,51.8,94,29.64,5.0,NNW,3.5,-,N/A,,Overcast,340,2013-09-28 10:36:00
5:53 AM,54.0,53.1,97,29.62,4.0,Calm,Calm,-,0.02,Rain,Light Rain,0,2013-09-28 10:53:00
6:36 AM,55.4,53.6,94,29.61,7.0,SE,4.6,-,0.03,Rain,Light Rain,130,2013-09-28 11:36:00
6:53 AM,55.0,54.0,96,29.62,5.0,SW,9.2,-,0.04,Rain,Light Rain,230,2013-09-28 11:53:00
7:01 AM,55.4,53.6,94,29.62,5.0,SSW,5.8,-,0.01,Rain,Light Rain,210,2013-09-28 12:01:00
7:21 AM,55.4,53.6,94,29.63,5.0,WSW,11.5,-,0.04,Rain,Light Rain,250,2013-09-28 12:21:00
7:51 AM,53.6,51.8,94,29.63,9.0,West,11.5,-,0.08,Rain,Light Rain,270,2013-09-28 12:51:00
7:53 AM,53.1,51.1,93,29.63,9.0,West,11.5,-,0.08,Rain,Light Rain,270,2013-09-28 12:53:00
8:53 AM,52.0,51.1,97,29.65,7.0,West,19.6,25.3,0.08,Rain,Light Rain,280,2013-09-28 13:53:00
9:53 AM,51.1,48.9,92,29.68,10.0,WNW,18.4,23.0,0.03,,Overcast,290,2013-09-28 14:53:00
10:53 AM,51.1,50.0,96,29.71,1.8,WNW,16.1,24.2,0.06,Rain,Rain,300,2013-09-28 15:53:00
11:05 AM,51.8,50.0,94,29.71,2.0,WNW,17.3,21.9,0.01,Rain,Light Rain,290,2013-09-28 16:05:00
11:14 AM,51.8,50.0,94,29.72,7.0,WNW,19.6,28.8,0.01,Rain,Light Rain,290,2013-09-28 16:14:00
11:31 AM,53.6,51.8,94,29.71,9.0,West,16.1,-,0.02,,Overcast,280,2013-09-28 16:31:00
11:53 AM,54.0,51.1,90,29.73,10.0,West,15.0,25.3,0.02,,Overcast,280,2013-09-28 16:53:00
12:06 PM,53.6,51.8,94,29.72,10.0,West,17.3,26.5,N/A,,Mostly Cloudy,280,2013-09-28 17:06:00
12:53 PM,53.1,51.1,93,29.76,6.0,West,16.1,24.2,0.00,Rain,Light Rain,270,2013-09-28 17:53:00
1:01 PM,53.6,50.0,88,29.75,8.0,West,18.4,23.0,0.00,,Overcast,280,2013-09-28 18:01:00
1:24 PM,53.6,50.0,88,29.76,10.0,WNW,18.4,28.8,0.00,,Overcast,290,2013-09-28 18:24:00
1:53 PM,55.0,48.0,77,29.78,10.0,West,19.6,25.3,0.00,,Overcast,280,2013-09-28 18:53:00
2:53 PM,55.9,48.9,77,29.80,10.0,West,19.6,26.5,0.00,,Overcast,270,2013-09-28 19:53:00
3:08 PM,55.4,48.2,77,29.79,10.0,West,17.3,-,N/A,,Overcast,270,2013-09-28 20:08:00
3:53 PM,55.0,45.0,69,29.82,10.0,WNW,24.2,29.9,N/A,,Overcast,290,2013-09-28 20:53:00
4:53 PM,57.9,43.0,58,29.83,10.0,NW,16.1,-,N/A,,Scattered Clouds,310,2013-09-28 21:53:00
5:53 PM,57.0,43.0,59,29.87,10.0,WNW,12.7,-,N/A,,Clear,290,2013-09-28 22:53:00
6:53 PM,55.0,43.0,64,29.89,10.0,Calm,Calm,-,N/A,,Clear,0,2013-09-28 23:53:00
7:53 PM,50.0,44.1,80,29.90,10.0,South,5.8,-,N/A,,Clear,180,2013-09-29 00:53:00
8:53 PM,48.9,44.1,83,29.91,10.0,South,6.9,-,N/A,,Partly Cloudy,170,2013-09-29 01:53:00
9:53 PM,48.9,44.1,83,29.91,10.0,South,5.8,-,N/A,,Clear,190,2013-09-29 02:53:00
10:53 PM,51.1,43.0,74,29.91,10.0,SSW,6.9,-,N/A,,Scattered Clouds,210,2013-09-29 03:53:00
11:53 PM,50.0,42.1,74,29.91,10.0,SW,9.2,-,N/A,,Clear,220,2013-09-29 04:53:00